Location: Marstown
(39.5056°N, 77.0820°W)
Time: 17:01:25
(UTC-04:00)

OTV 5 (USA 277) - Visible Passes

Search period start: 20 August 2019 00:00
Search period end: 30 August 2019 00:00
Orbit: 305 x 329 km, 54.5° (Epoch: 20 August)

Date Brightness Start Highest point End Pass type
(mag) Time Alt. Az. Time Alt. Az. Time Alt. Az.
20 Aug ? 05:49:32 10° NW 05:52:09 66° NE 05:54:46 10° SE visible
21 Aug ? 04:30:28 10° N 04:32:14 16° NNE 04:34:00 10° ENE visible
22 Aug ? 04:45:18 17° NNW 04:46:58 36° NE 04:49:26 10° ESE visible
22 Aug ? 21:03:55 10° S 21:04:58 18° S 21:04:58 18° S visible
23 Aug ? 05:01:43 61° SSW 05:01:43 61° SSW 05:04:07 10° SE visible
23 Aug ? 21:17:58 10° SW 21:20:40 87° SE 21:21:24 43° NE visible
24 Aug ? 21:32:49 10° WSW 21:35:16 30° NW 21:37:02 15° NNE visible
25 Aug ? 20:12:56 10° SSW 20:15:32 45° SE 20:18:07 10° ENE visible
25 Aug ? 21:48:26 10° WNW 21:50:01 14° NNW 21:51:37 10° N visible
26 Aug ? 20:27:24 10° WSW 20:30:03 51° NW 20:32:42 10° NE visible
27 Aug ? 20:42:36 10° W 20:44:44 20° NNW 20:46:51 10° NNE visible
28 Aug ? 20:58:53 10° NW 20:59:33 11° NNW 21:00:13 10° NNW visible
